This is the latest recevied weather packets stored in our database for station/object SR9WXY. If no packets are shown the sender has not sent any weather packets the latest 1 day(s).
| Time | Temp. | Humidity | Pressure | Rain* | Wind** | Luminosity | Snow |
|---|---|---|---|---|---|---|---|
| 1777974193 | 17.78° C | 47% | 878.5 hPa | - | 0 m/s | - | - |
| 1777973893 | 17.22° C | 47% | 878.4 hPa | - | 0 m/s | - | - |
| 1777973593 | 17.22° C | 47% | 878.5 hPa | - | 0 m/s | - | - |
| 1777973293 | 17.78° C | 47% | 878.5 hPa | - | 0 m/s | - | - |
| 1777972993 | 17.78° C | 47% | 878.6 hPa | - | 0 m/s | - | - |
| 1777972693 | 17.22° C | 48% | 878.6 hPa | - | 0 m/s | - | - |
| 1777972393 | 17.22° C | 48% | 878.6 hPa | - | 0 m/s | - | - |
| 1777972093 | 17.22° C | 48% | 878.6 hPa | - | 0 m/s | - | - |
| 1777971793 | 16.67° C | 48% | 878.6 hPa | - | 0 m/s | - | - |
| 1777971491 | 16.67° C | 48% | 878.7 hPa | - | 0 m/s | - | - |
| 1777971191 | 16.11° C | 48% | 878.7 hPa | - | 0 m/s | - | - |
| 1777970891 | 15.56° C | 49% | 878.5 hPa | - | 0 m/s | - | - |
| 1777970591 | 15° C | 49% | 878.7 hPa | - | 0 m/s | - | - |
| 1777970292 | 15° C | 49% | 878.7 hPa | - | 0 m/s | - | - |
| 1777969990 | 15° C | 49% | 878.8 hPa | - | 0 m/s | - | - |
| 1777969680 | 14.44° C | 49% | 878.6 hPa | - | 0 m/s | - | - |
| 1777969381 | 13.89° C | 49% | 878.7 hPa | - | 0 m/s | - | - |
| 1777969080 | 13.33° C | 49% | 878.8 hPa | - | 0 m/s | - | - |
| 1777968780 | 13.33° C | 49% | 878.9 hPa | - | 0 m/s | - | - |
| 1777968480 | 13.33° C | 49% | 878.8 hPa | - | 0 m/s | - | - |
| 1777968180 | 12.78° C | 49% | 878.9 hPa | - | 0 m/s | - | - |
| 1777967880 | 12.78° C | 49% | 878.8 hPa | - | 0 m/s | - | - |
| 1777967580 | 12.78° C | 49% | 878.8 hPa | - | 0 m/s | - | - |
| 1777967281 | 13.33° C | 49% | 878.8 hPa | - | 0 m/s | - | - |
| 1777966981 | 13.33° C | 49% | 878.8 hPa | - | 0 m/s | - | - |
* Rain since midnight (hover to see other rain measurements)
** Current wind speed in m/s (hover to see current wind gust speed)